Weather History for North Adams, MA

Change the Weather History Date:

Tuesday, February 19, 2013

  Actual Average Record
Temperature  
Mean Temperature 28 °F -  
Max Temperature 42 °F 33 °F 54 °F (1997)
Min Temperature 15 °F 16 °F 0 °F (2007)
Degree Days  
Heating Degree Days 36    
Moisture  
Dew Point 20 °F    
Average Humidity 66    
Maximum Humidity 89    
Minimum Humidity 35    
Precipitation  
Precipitation 0.14 in - - ()
Sea Level Pressure  
Sea Level Pressure 29.82 in    
Wind  
Wind Speed 5 mph (East)    
Max Wind Speed 15 mph    
Max Gust Speed 25 mph    
Visibility 7 miles    
Events Rain , Snow    
Averages and records for this station are not official NWS values.
T = Trace of Precipitation, MM = Missing Value Source: NWS Daily Summary

Daily Weather History Graph

Daily Weather History Graph

Search for Another Location

Airport:

Trip Planner

Search our weather history database for the weather conditions in past years. The results will help you decide how hot, cold, wet, or windy it might be!

Date:

Astronomy

Feb. 19, 2013 Rise Set
Actual Time 6:43 AM EST 5:29 PM EST
Civil Twilight 6:14 AM EST 5:58 PM EST
Nautical Twilight 5:42 AM EST 6:31 PM EST
Astronomical Twilight 5:09 AM EST 7:04 PM EST
Moon 11:55 AM EST (2/19) 2:17 AM EST (2/19)
Length of Visible Light 11h 43m
Length of Day
10h 46m
Waxing Gibbous, 67% of the Moon is Illuminated
Feb 19
Waxing Gibbous
Feb 25
Full
Mar 4
Last Quarter
Mar 11
New
Mar 19
First Quarter

Hourly Weather History & Observations

Time (EST) Temp. Windchill Dew Point Humidity Pressure Visibility Wind Dir Wind Speed Gust Speed Precip Events Conditions
12:52 AM 15.1 °F 9.4 °F 1.9 °F 56% 30.19 in 10.0 mi East 3.5 mph - N/A   Clear
1:52 AM 16.0 °F 10.4 °F 1.9 °F 54% 30.17 in 10.0 mi East 3.5 mph - N/A   Mostly Cloudy
2:52 AM 18.0 °F 12.7 °F 1.9 °F 50% 30.15 in 10.0 mi ENE 3.5 mph - N/A   Overcast
3:52 AM 19.0 °F - 3.0 °F 50% 30.13 in 10.0 mi Calm Calm - N/A   Overcast
4:52 AM 19.0 °F 12.3 °F 3.9 °F 52% 30.11 in 10.0 mi SE 4.6 mph - N/A   Mostly Cloudy
5:52 AM 21.0 °F 11.4 °F 5.0 °F 50% 30.09 in 10.0 mi ESE 8.1 mph - N/A   Mostly Cloudy
6:52 AM 21.0 °F 12.4 °F 5.0 °F 50% 30.05 in 10.0 mi East 6.9 mph - N/A   Clear
7:52 AM 24.1 °F 15.2 °F 6.1 °F 46% 30.03 in 10.0 mi ESE 8.1 mph - N/A   Clear
8:52 AM 30.0 °F 20.5 °F 8.1 °F 40% 30.01 in 10.0 mi ESE 11.5 mph - N/A   Clear
9:52 AM 36.0 °F 27.5 °F 10.9 °F 36% 29.96 in 10.0 mi East 12.7 mph 18.4 mph N/A   Clear
10:52 AM 41.0 °F 39.0 °F 15.1 °F 35% 29.94 in 10.0 mi Variable 3.5 mph - N/A   Clear
11:52 AM 42.1 °F 36.6 °F 16.0 °F 35% 29.90 in 10.0 mi East 9.2 mph 18.4 mph N/A   Clear
1:52 PM 39.9 °F 33.4 °F 15.1 °F 36% 29.82 in 10.0 mi East 10.4 mph - N/A   Mostly Cloudy
2:52 PM 41.0 °F 34.7 °F 21.0 °F 45% 29.80 in 10.0 mi ENE 10.4 mph 17.3 mph N/A   Overcast
3:44 PM 37.4 °F 30.8 °F 28.4 °F 70% 29.75 in 8.0 mi ENE 9.2 mph 19.6 mph 0.00 in Rain Light Rain
3:52 PM 37.9 °F 32.1 °F 30.0 °F 73% 29.78 in 7.0 mi East 8.1 mph 16.1 mph 0.00 in   Overcast
4:52 PM 37.9 °F 33.5 °F 30.9 °F 76% 29.74 in 6.0 mi Variable 5.8 mph - 0.00 in Rain Light Rain
5:52 PM 37.0 °F 34.5 °F 30.9 °F 79% 29.72 in 6.0 mi Variable 3.5 mph - 0.00 in Rain Light Rain
7:52 PM 36.0 °F 33.3 °F 30.9 °F 82% 29.67 in 8.0 mi ESE 3.5 mph - 0.02 in Rain Light Rain
8:52 PM 34.0 °F - 30.0 °F 85% 29.65 in 7.0 mi Calm Calm - 0.03 in Rain Light Rain
9:05 PM 33.8 °F 30.8 °F 30.2 °F 87% 29.62 in 7.0 mi East 3.5 mph - 0.01 in Rain Light Rain
9:52 PM 34.0 °F - 30.0 °F 85% 29.64 in 4.0 mi Calm Calm - 0.03 in Rain Light Rain
10:52 PM 33.1 °F - 30.0 °F 89% 29.62 in 3.0 mi Calm Calm - 0.03 in Rain Light Rain
11:19 PM 33.8 °F - 28.4 °F 81% 29.59 in 2.5 mi Calm Calm - 0.01 in Rain Light Rain
11:29 PM 33.8 °F - 30.2 °F 87% 29.58 in 1.8 mi Calm Calm - 0.01 in Rain Light Rain
11:37 PM 33.8 °F - 30.2 °F 87% 29.59 in 1.2 mi Calm Calm - 0.02 in Rain Light Rain
11:39 PM 33.8 °F 30.8 °F 30.2 °F 87% 29.59 in 1.5 mi WNW 3.5 mph - 0.02 in Rain Light Rain
11:47 PM 33.8 °F 27.7 °F 30.2 °F 87% 29.60 in 2.0 mi WNW 6.9 mph - 0.03 in Rain Light Rain
11:48 PM 33.8 °F 26.4 °F 30.2 °F 87% 29.60 in 2.0 mi West 9.2 mph - 0.03 in Rain Light Rain
11:52 PM 33.1 °F 23.0 °F 30.0 °F 89% 29.62 in 2.5 mi West 15.0 mph 25.3 mph 0.03 in Snow Light Snow
11:58 PM 33.8 °F 25.8 °F 28.4 °F 81% 29.61 in 4.0 mi West 10.4 mph 25.3 mph 0.00 in Snow Light Snow